User: anonymous   Login
Location: Unspecified
(0.0000°N, 0.0000°E)
Time: 02:20:40
(UTC+00:00)
Language:

NANOSAT C BR1 - Orbit

View from above orbital plane
View from above orbital plane
View from above satellite
View from above satellite

Ground track
Ground track

The orbit data is extracted from the following two-line orbital elements,

1 40024U 14033Q   18020.71289733  .00000430  00000-0  51181-4 0  9999
2 40024  97.9124 297.6897 0011310 311.3666  48.6578 14.89457450194924
Epoch (UTC): 20 January 2018 17:06:34
Eccentricity: 0.0011310
inclination: 97.9124°
perigee height: 592 km
apogee height: 607 km
right ascension of ascending node: 297.6897°
argument of perigee: 311.3666°
revolutions per day: 14.89457450
mean anomaly at epoch: 48.6578°
orbit number at epoch: 19492

The dashed part of the orbit path shows where the satellite is in the earth's shadow,  

DLR